Thunderstorms From: 25-05-2018 23:09 Until: 26-05-2018 15:00 warning for: Thunderstorms Level: Yellow info button

Although rather usual in this region, locally or potentially dangerous phenomena are expected. (such as local winds, summer thunderstorms, rising streams or high waves) Be aware and pay attention to the latest weather updates, especially if you carry out activities exposed to weather or close to a stream or shoreline. 


Meteo18 Weather Cam more information Meteo18 Weather Cam


warning for Thunderstorms more information blitzortung!


Rain radar more information rain snow radar


Visit our other weather sites:

Template documentation
and downloads

And another site



Weather Underground History page Text

Daily Summary for April 28, 2017 Units:  Metric    English   Both
« Previous Day
Next Day »
Daily Weekly Monthly Yearly Custom
  High: Low: Average:
Temperature: -17.8 °C -17 °C -13.9 °C
Dew Point: -17.8 °C -18.6 °C -16.8 °C
Humidity: Humidity % 56 % 70 %
Wind Speed: 0 km/h 0 km/h 4.8 km/h
Wind Gust: 0 km/h - -
Wind:- - West
Pressure: 0 hPa 34462.7 hPa -
Precipitation: 0 mm    
Historical Graphs
 
 
Tabular Data for April 28, 2017
Time Temperature Dew Point Pressure Wind Wind Speed Wind Gust Humidity Rainfall Rate (Hourly)
-17.8 °C -17.8 °C 0 hPa Calm     Humidity % 0 mm
00:02 -15.4 °C -17.6 °C 34486.4 hPa WNW 15.6 km/h 18.2 km/h 76 % 0 mm
00:12 -15.5 °C -17.6 °C 34486.4 hPa WNW 5.1 km/h 20.8 km/h 76 % 0 mm
00:17 -15.6 °C -17.7 °C 34496.6 hPa WNW 10.3 km/h 20.8 km/h 76 % 0 mm
00:22 -15.6 °C -17.7 °C 34496.6 hPa WNW 12.9 km/h 20.8 km/h 77 % 0 mm
00:32 -15.6 °C -17.7 °C 34486.4 hPa WNW 5.1 km/h 20.8 km/h 76 % 0 mm
00:42 -15.7 °C -17.7 °C 34486.4 hPa North 5.1 km/h 20.8 km/h 77 % 0 mm
00:52 -15.7 °C -17.7 °C 34486.4 hPa NW 7.7 km/h 20.8 km/h 77 % 0 mm
00:57 -15.7 °C -17.8 °C 34496.6 hPa West 2.6 km/h 18.2 km/h 77 % 0 mm
01:02 -15.7 °C -17.8 °C 34496.6 hPa WNW 7.7 km/h 18.2 km/h 77 % 0 mm
01:12 -15.8 °C -17.8 °C 34496.6 hPa NW 7.7 km/h 18.2 km/h 77 % 0 mm
01:17 -15.8 °C -17.8 °C 34496.6 hPa NNW 7.7 km/h 12.9 km/h 77 % 0 mm
01:22 -15.8 °C -17.8 °C 34496.6 hPa NNW 7.7 km/h 15.6 km/h 77 % 0 mm
01:32 -15.9 °C -17.9 °C 34496.6 hPa WNW 5.1 km/h 15.6 km/h 77 % 0 mm
01:42 -16.1 °C -17.9 °C 34496.6 hPa Calm   12.9 km/h 79 % 0 mm
01:47 -16.1 °C -18 °C 34496.6 hPa Calm   7.7 km/h 78 % 0 mm
01:52 -16.1 °C -18 °C 34486.4 hPa WNW 2.6 km/h 7.7 km/h 78 % 0 mm
01:57 -16 °C -17.9 °C 34486.4 hPa NW 5.1 km/h 5.1 km/h 78 % 0 mm
02:02 -15.9 °C -17.9 °C 34486.4 hPa NNW 5.1 km/h 7.7 km/h 78 % 0 mm
02:07 -15.9 °C -17.9 °C 34486.4 hPa NW 7.7 km/h 10.3 km/h 77 % 0 mm
02:12 -15.8 °C -17.8 °C 34486.4 hPa WNW 2.6 km/h 10.3 km/h 77 % 0 mm
02:17 -15.7 °C -17.8 °C 34486.4 hPa NW 5.1 km/h 15.6 km/h 77 % 0 mm
02:22 -15.7 °C -17.8 °C 34486.4 hPa NNW 2.6 km/h 15.6 km/h 76 % 0 mm
02:32 -15.7 °C -17.8 °C 34486.4 hPa NW 7.7 km/h 15.6 km/h 76 % 0 mm
02:42 -15.8 °C -17.9 °C 34486.4 hPa WNW 10.3 km/h 12.9 km/h 76 % 0 mm
02:52 -15.9 °C -18 °C 34486.4 hPa NNW 7.7 km/h 18.2 km/h 76 % 0 mm
02:57 -15.9 °C -18 °C 34486.4 hPa North 5.1 km/h 12.9 km/h 76 % 0 mm
03:02 -16 °C -18 °C 34486.4 hPa NNW 2.6 km/h 12.9 km/h 77 % 0 mm
03:12 -16 °C -18 °C 34486.4 hPa WNW 2.6 km/h 12.9 km/h 77 % 0 mm
03:17 -15.9 °C -17.9 °C 34486.4 hPa NNW 2.6 km/h 12.9 km/h 77 % 0 mm
03:22 -15.9 °C -17.9 °C 34486.4 hPa WNW 2.6 km/h 12.9 km/h 77 % 0 mm
03:27 -16 °C -18 °C 34486.4 hPa North 5.1 km/h 12.9 km/h 77 % 0 mm
03:32 -16.1 °C -18.1 °C 34486.4 hPa NNW 5.1 km/h 7.7 km/h 77 % 0 mm
03:42 -16.2 °C -18.2 °C 34486.4 hPa NNW 7.7 km/h 10.3 km/h 77 % 0 mm
03:47 -16.2 °C -18.2 °C 34486.4 hPa NNW 5.1 km/h 15.6 km/h 78 % 0 mm
03:52 -16.2 °C -18.2 °C 34486.4 hPa NNW 2.6 km/h 15.6 km/h 78 % 0 mm
03:57 -16.2 °C -18.2 °C 34486.4 hPa NNW 5.1 km/h 15.6 km/h 78 % 0 mm
04:02 -16.2 °C -18.2 °C 34486.4 hPa NNW 2.6 km/h 10.3 km/h 78 % 0 mm
04:12 -16.3 °C -18.2 °C 34486.4 hPa North 2.6 km/h 10.3 km/h 78 % 0 mm
04:17 -16.3 °C -18.2 °C 34486.4 hPa Calm   15.6 km/h 78 % 0 mm
04:22 -16.3 °C -18.2 °C 34476.3 hPa NNW 5.1 km/h 15.6 km/h 78 % 0 mm
04:27 -16.3 °C -18.2 °C 34476.3 hPa NNW 5.1 km/h 15.6 km/h 78 % 0 mm
04:32 -16.3 °C -18.2 °C 34476.3 hPa NW 5.1 km/h 12.9 km/h 78 % 0 mm
04:42 -16.5 °C -18.3 °C 34476.3 hPa NW 7.7 km/h 12.9 km/h 79 % 0 mm
04:47 -16.6 °C -18.4 °C 34486.4 hPa Calm   12.9 km/h 79 % 0 mm
04:52 -16.6 °C -18.4 °C 34476.3 hPa North 5.1 km/h 12.9 km/h 79 % 0 mm
04:57 -16.6 °C -18.4 °C 34476.3 hPa NNW 5.1 km/h 10.3 km/h 79 % 0 mm
05:02 -16.6 °C -18.4 °C 34476.3 hPa NNW 7.7 km/h 10.3 km/h 79 % 0 mm
05:12 -16.6 °C -18.4 °C 34476.3 hPa Calm   12.9 km/h 79 % 0 mm
05:17 -16.6 °C -18.4 °C 34476.3 hPa North 5.1 km/h 12.9 km/h 79 % 0 mm
05:22 -16.6 °C -18.3 °C 34476.3 hPa Calm   12.9 km/h 80 % 0 mm
05:32 -16.6 °C -18.4 °C 34476.3 hPa NNW 5.1 km/h 7.7 km/h 79 % 0 mm
05:42 -16.6 °C -18.4 °C 34476.3 hPa NNW 5.1 km/h 10.3 km/h 79 % 0 mm
05:52 -16.6 °C -18.4 °C 34462.7 hPa NNW 7.7 km/h 12.9 km/h 79 % 0 mm
06:02 -16.6 °C -18.4 °C 34462.7 hPa NNE 5.1 km/h 12.9 km/h 79 % 0 mm
06:12 -16.6 °C -18.4 °C 34462.7 hPa Calm   12.9 km/h 79 % 0 mm
06:17 -16.6 °C -18.4 °C 34462.7 hPa NW 2.6 km/h 12.9 km/h 79 % 0 mm
06:22 -16.6 °C -18.4 °C 34462.7 hPa Calm   12.9 km/h 78 % 0 mm
06:32 -16.6 °C -18.4 °C 34462.7 hPa NW 2.6 km/h 15.6 km/h 78 % 0 mm
06:37 -16.6 °C -18.4 °C 34462.7 hPa NW 2.6 km/h 15.6 km/h 78 % 0 mm
06:42 -16.6 °C -18.5 °C 34462.7 hPa WNW 2.6 km/h 15.6 km/h 78 % 0 mm
06:47 -16.7 °C -18.6 °C 34476.3 hPa Calm   15.6 km/h 79 % 0 mm
06:52 -16.8 °C -18.6 °C 34476.3 hPa Calm   15.6 km/h 79 % 0 mm
06:57 -16.8 °C -18.6 °C 34476.3 hPa WNW 2.6 km/h 10.3 km/h 79 % 0 mm
07:02 -16.8 °C -18.6 °C 34476.3 hPa Calm   10.3 km/h 79 % 0 mm
07:12 -16.8 °C -18.6 °C 34476.3 hPa Calm   10.3 km/h 80 % 0 mm
07:17 -16.9 °C -18.6 °C 34486.4 hPa Calm   10.3 km/h 80 % 0 mm
07:22 -16.9 °C -18.5 °C 34486.4 hPa Calm   7.7 km/h 81 % 0 mm
07:32 -17 °C -18.6 °C 34486.4 hPa Calm   2.6 km/h 81 % 0 mm
07:42 -17 °C -18.5 °C 34486.4 hPa Calm   5.1 km/h 82 % 0 mm
07:52 -16.8 °C -18.4 °C 34496.6 hPa Calm     81 % 0 mm
07:57 -16.8 °C -18.3 °C 34496.6 hPa Calm     82 % 0 mm
08:02 -16.5 °C -18.1 °C 34496.6 hPa Calm   2.6 km/h 82 % 0 mm
08:12 -16 °C -17.9 °C 34486.4 hPa Calm   2.6 km/h 78 % 0 mm
08:17 -16 °C -17.9 °C 34496.6 hPa Calm   2.6 km/h 78 % 0 mm
08:22 -15.8 °C -17.7 °C 34496.6 hPa Calm     78 % 0 mm
08:32 -15.1 °C -17.5 °C 34496.6 hPa Calm     73 % 0 mm
08:42 -14.8 °C -17.2 °C 34496.6 hPa Calm     74 % 0 mm
08:47 -14.3 °C -16.7 °C 34496.6 hPa Calm     74 % 0 mm
08:57 -13.4 °C -17 °C 34496.6 hPa Calm     64 % 0 mm
09:02 -13.8 °C -17.2 °C 34496.6 hPa Calm     65 % 0 mm
09:12 -13.9 °C -17.3 °C 34496.6 hPa West 2.6 km/h 12.9 km/h 65 % 0 mm
09:17 -13.9 °C -17.2 °C 34496.6 hPa WNW 5.1 km/h 12.9 km/h 66 % 0 mm
09:22 -14 °C -17.3 °C 34496.6 hPa WNW 7.7 km/h 12.9 km/h 66 % 0 mm
09:27 -14.1 °C -17.1 °C 34496.6 hPa WNW 10.3 km/h 12.9 km/h 68 % 0 mm
09:32 -14.1 °C -17 °C 34496.6 hPa NW 2.6 km/h 12.9 km/h 69 % 0 mm
09:42 -13.9 °C -16.9 °C 34496.6 hPa Calm   12.9 km/h 68 % 0 mm
09:47 -13.8 °C -17 °C 34496.6 hPa NW 5.1 km/h 12.9 km/h 67 % 0 mm
09:52 -13.8 °C -16.9 °C 34496.6 hPa West 7.7 km/h 7.7 km/h 68 % 0 mm
10:02 -13.9 °C -17.1 °C 34496.6 hPa Calm   10.3 km/h 67 % 0 mm
10:12 -13.8 °C -16.9 °C 34496.6 hPa WNW 5.1 km/h 7.7 km/h 67 % 0 mm
10:17 -13.7 °C -16.8 °C 34496.6 hPa Calm   7.7 km/h 68 % 0 mm
10:22 -13.7 °C -16.9 °C 34496.6 hPa SW 5.1 km/h 10.3 km/h 67 % 0 mm
10:32 -13.7 °C -16.7 °C 34496.6 hPa WSW 5.1 km/h 10.3 km/h 68 % 0 mm
10:37 -13.7 °C -16.7 °C 34496.6 hPa WSW 2.6 km/h 10.3 km/h 68 % 0 mm
10:42 -13.5 °C -16.6 °C 34496.6 hPa West 2.6 km/h 10.3 km/h 68 % 0 mm
10:47 -13.4 °C -16.8 °C 34496.6 hPa West 7.7 km/h 10.3 km/h 65 % 0 mm
10:57 -13.2 °C -17 °C 34496.6 hPa West 12.9 km/h 20.8 km/h 62 % 0 mm
11:02 -13.2 °C -16.7 °C 34496.6 hPa WSW 2.6 km/h 25.9 km/h 64 % 0 mm
11:12 -13.1 °C -16.8 °C 34496.6 hPa West 15.6 km/h 25.9 km/h 63 % 0 mm
11:17 -13.1 °C -17.2 °C 34496.6 hPa WSW 23.3 km/h 25.9 km/h 60 % 0 mm
11:22 -13.1 °C -17.2 °C 34496.6 hPa SW 12.9 km/h 28.5 km/h 60 % 0 mm
11:27 -13.1 °C -17.1 °C 34496.6 hPa West 25.9 km/h 28.5 km/h 60 % 0 mm
11:32 -13.1 °C -17.3 °C 34496.6 hPa WNW 10.3 km/h 33.6 km/h 59 % 0 mm
11:42 -13 °C -17.1 °C 34496.6 hPa WSW 7.7 km/h 33.6 km/h 60 % 0 mm
11:47 -13 °C -17.2 °C 34510.1 hPa WSW 10.3 km/h 33.6 km/h 59 % 0 mm
11:52 -13 °C -17.2 °C 34510.1 hPa West 12.9 km/h 25.9 km/h 59 % 0 mm
11:57 -13 °C -17.3 °C 34510.1 hPa West 7.7 km/h 25.9 km/h 58 % 0 mm
12:02 -13 °C -17.3 °C 34496.6 hPa WNW 12.9 km/h 25.9 km/h 58 % 0 mm
12:12 -12.9 °C -17.1 °C 34496.6 hPa SSE 2.6 km/h 20.8 km/h 59 % 0 mm
12:17 -12.8 °C -17.2 °C 34496.6 hPa WSW 15.6 km/h 20.8 km/h 58 % 0 mm
12:22 -12.7 °C -16.9 °C 34496.6 hPa SW 2.6 km/h 20.8 km/h 59 % 0 mm
12:32 -12.6 °C -16.8 °C 34496.6 hPa WNW 10.3 km/h 20.8 km/h 59 % 0 mm
12:42 -12.4 °C -16.6 °C 34496.6 hPa West 18.2 km/h 18.2 km/h 59 % 0 mm
12:47 -12.4 °C -16.9 °C 34496.6 hPa West 10.3 km/h 15.6 km/h 57 % 0 mm
12:52 -12.3 °C -16.8 °C 34496.6 hPa West 12.9 km/h 20.8 km/h 57 % 0 mm
13:02 -12.5 °C -17.1 °C 34496.6 hPa West 7.7 km/h 20.8 km/h 56 % 0 mm
13:12 -12.6 °C -16.9 °C 34496.6 hPa West 10.3 km/h 18.2 km/h 58 % 0 mm
13:17 -12.6 °C -17.2 °C 34496.6 hPa WSW 5.1 km/h 18.2 km/h 56 % 0 mm
13:22 -12.4 °C -16.9 °C 34496.6 hPa West 2.6 km/h 18.2 km/h 57 % 0 mm
13:32 -12.3 °C -16.8 °C 34496.6 hPa WSW 10.3 km/h 18.2 km/h 57 % 0 mm
13:42 -12.3 °C -16.7 °C 34496.6 hPa NW 7.7 km/h 20.8 km/h 58 % 0 mm
13:47 -12.3 °C -16.8 °C 34496.6 hPa WNW 12.9 km/h 20.8 km/h 57 % 0 mm
13:57 -12.4 °C -16.8 °C 34496.6 hPa WNW 5.1 km/h 20.8 km/h 58 % 0 mm
14:02 -12.4 °C -16.6 °C 34496.6 hPa West 12.9 km/h 18.2 km/h 59 % 0 mm
14:12 -12.3 °C -16.4 °C 34496.6 hPa WNW 12.9 km/h 20.8 km/h 60 % 0 mm
14:17 -12.3 °C -16.4 °C 34496.6 hPa West 2.6 km/h 20.8 km/h 60 % 0 mm
14:22 -12.3 °C -16.4 °C 34496.6 hPa WNW 12.9 km/h 23.3 km/h 60 % 0 mm
14:27 -12.2 °C -16.3 °C 34496.6 hPa WNW 2.6 km/h 23.3 km/h 60 % 0 mm
14:32 -12.1 °C -16.3 °C 34496.6 hPa NW 2.6 km/h 20.8 km/h 59 % 0 mm
14:42 -12.1 °C -16.2 °C 34496.6 hPa West 10.3 km/h 20.8 km/h 60 % 0 mm
14:47 -12.2 °C -16.4 °C 34496.6 hPa SSW 5.1 km/h 25.9 km/h 59 % 0 mm
14:52 -12.1 °C -16.1 °C 34496.6 hPa Calm   25.9 km/h 61 % 0 mm
14:57 -12.1 °C -16.2 °C 34496.6 hPa NW 7.7 km/h 15.6 km/h 60 % 0 mm
15:02 -12.1 °C -16.2 °C 34496.6 hPa WNW 7.7 km/h 15.6 km/h 60 % 0 mm
15:12 -12.2 °C -16.2 °C 34496.6 hPa WSW 10.3 km/h 15.6 km/h 61 % 0 mm
15:17 -12.2 °C -16.1 °C 34496.6 hPa West 7.7 km/h 15.6 km/h 62 % 0 mm
15:22 -12.2 °C -16.1 °C 34496.6 hPa WNW 15.6 km/h 18.2 km/h 62 % 0 mm
15:27 -12.2 °C -15.8 °C 34496.6 hPa WNW 5.1 km/h 20.8 km/h 64 % 0 mm
15:32 -12.1 °C -15.7 °C 34496.6 hPa WSW 7.7 km/h 20.8 km/h 64 % 0 mm
15:42 -11.9 °C -15.7 °C 34496.6 hPa West 12.9 km/h 20.8 km/h 63 % 0 mm
15:47 -11.8 °C -15.8 °C 34486.4 hPa WNW 5.1 km/h 23.3 km/h 61 % 0 mm
15:52 -11.7 °C -15.8 °C 34486.4 hPa West 15.6 km/h 23.3 km/h 60 % 0 mm
15:57 -11.7 °C -15.8 °C 34486.4 hPa West 2.6 km/h 25.9 km/h 60 % 0 mm
16:02 -11.6 °C -15.8 °C 34486.4 hPa SW 12.9 km/h 25.9 km/h 60 % 0 mm
16:12 -11.6 °C -15.7 °C 34486.4 hPa West 7.7 km/h 25.9 km/h 60 % 0 mm
16:22 -11.5 °C -15.5 °C 34476.3 hPa West 12.9 km/h 25.9 km/h 61 % 0 mm
16:32 -11.4 °C -15.7 °C 34476.3 hPa West 10.3 km/h 23.3 km/h 59 % 0 mm
16:47 -11 °C -15.4 °C 34476.3 hPa West 7.7 km/h 23.3 km/h 58 % 0 mm
16:52 -10.9 °C -15.6 °C 34476.3 hPa West 5.1 km/h 23.3 km/h 57 % 0 mm
16:57 -11.1 °C -15.7 °C 34476.3 hPa SW 5.1 km/h 23.3 km/h 57 % 0 mm
17:02 -11.1 °C -15.7 °C 34476.3 hPa SSW 10.3 km/h 23.3 km/h 57 % 0 mm
17:07 -11.2 °C -15.9 °C 34476.3 hPa SSW 2.6 km/h 23.3 km/h 56 % 0 mm
17:12 -11.2 °C -15.8 °C 34476.3 hPa West 5.1 km/h 23.3 km/h 57 % 0 mm
17:17 -11.2 °C -15.6 °C 34476.3 hPa SW 2.6 km/h 23.3 km/h 58 % 0 mm
17:22 -11.2 °C -15.5 °C 34476.3 hPa WSW 10.3 km/h 23.3 km/h 59 % 0 mm
17:27 -11.2 °C -15.4 °C 34476.3 hPa WSW 2.6 km/h 23.3 km/h 60 % 0 mm
17:32 -11.3 °C -15.5 °C 34476.3 hPa SSW 5.1 km/h 23.3 km/h 60 % 0 mm
17:37 -11.3 °C -15.3 °C 34476.3 hPa WSW 10.3 km/h 23.3 km/h 61 % 0 mm
17:42 -11.3 °C -15.4 °C 34476.3 hPa SW 2.6 km/h 23.3 km/h 61 % 0 mm
17:47 -11.3 °C -15.6 °C 34476.3 hPa SSE 12.9 km/h 23.3 km/h 59 % 0 mm
17:52 -11.3 °C -15.5 °C 34476.3 hPa SW 10.3 km/h 18.2 km/h 60 % 0 mm
17:57 -11.4 °C -15.6 °C 34476.3 hPa SW 5.1 km/h 18.2 km/h 60 % 0 mm
18:02 -11.4 °C -15.7 °C 34476.3 hPa SW 5.1 km/h 18.2 km/h 59 % 0 mm
18:07 -11.4 °C -15.6 °C 34476.3 hPa SW 2.6 km/h 12.9 km/h 60 % 0 mm
18:12 -11.4 °C -15.6 °C 34476.3 hPa SSW 5.1 km/h 12.9 km/h 60 % 0 mm
18:17 -11.5 °C -15.5 °C 34476.3 hPa WSW 2.6 km/h 10.3 km/h 61 % 0 mm
18:22 -11.6 °C -15.6 °C 34476.3 hPa WSW 5.1 km/h 10.3 km/h 61 % 0 mm
18:32 -11.6 °C -15.5 °C 34476.3 hPa South 2.6 km/h 10.3 km/h 62 % 0 mm
18:42 -11.6 °C -15.4 °C 34486.4 hPa SSW 10.3 km/h 10.3 km/h 63 % 0 mm
18:52 -11.6 °C -14.9 °C 34486.4 hPa West 5.1 km/h 12.9 km/h 67 % 0 mm
18:57 -11.7 °C -14.9 °C 34486.4 hPa WNW 2.6 km/h 12.9 km/h 67 % 0 mm
19:02 -11.7 °C -15.2 °C 34486.4 hPa WNW 2.6 km/h 12.9 km/h 65 % 0 mm
19:12 -11.6 °C -15 °C 34476.3 hPa Calm   7.7 km/h 66 % 0 mm
19:17 -11.6 °C -14.9 °C 34486.4 hPa WNW 2.6 km/h 5.1 km/h 66 % 0 mm
19:22 -11.3 °C -14.9 °C 34476.3 hPa Calm   5.1 km/h 65 % 0 mm
19:32 -10.9 °C -14.8 °C 34476.3 hPa Calm   7.7 km/h 62 % 0 mm
19:42 -11.1 °C -15.3 °C 34476.3 hPa West 2.6 km/h 7.7 km/h 60 % 0 mm
19:52 -11.2 °C -15.2 °C 34476.3 hPa Calm   2.6 km/h 61 % 0 mm
19:57 -11.2 °C -15.2 °C 34476.3 hPa SW 2.6 km/h 5.1 km/h 61 % 0 mm
20:02 -11.3 °C -15.1 °C 34476.3 hPa WSW 2.6 km/h 2.6 km/h 63 % 0 mm
20:12 -11.5 °C -15 °C 34486.4 hPa WSW 10.3 km/h 10.3 km/h 65 % 0 mm
20:17 -11.6 °C -15 °C 34486.4 hPa WSW 7.7 km/h 12.9 km/h 66 % 0 mm
20:27 -11.8 °C -15 °C 34486.4 hPa West 2.6 km/h 15.6 km/h 68 % 0 mm
20:32 -11.9 °C -15.1 °C 34486.4 hPa WSW 7.7 km/h 15.6 km/h 68 % 0 mm
20:42 -12.3 °C -15.1 °C 34486.4 hPa Calm   10.3 km/h 71 % 0 mm
20:47 -12.4 °C -15.1 °C 34486.4 hPa WSW 5.1 km/h 10.3 km/h 72 % 0 mm
20:57 -12.7 °C -15.1 °C 34486.4 hPa WSW 2.6 km/h 5.1 km/h 74 % 0 mm
21:02 -12.7 °C -15.1 °C 34486.4 hPa Calm   5.1 km/h 75 % 0 mm
21:12 -13 °C -15.1 °C 34496.6 hPa Calm   5.1 km/h 77 % 0 mm
21:17 -13.2 °C -15.2 °C 34496.6 hPa West 2.6 km/h 2.6 km/h 78 % 0 mm
21:22 -13.4 °C -15.3 °C 34496.6 hPa Calm   2.6 km/h 79 % 0 mm
21:32 -13.6 °C -15.3 °C 34496.6 hPa Calm   2.6 km/h 81 % 0 mm
21:37 -13.7 °C -15.4 °C 34496.6 hPa Calm   2.6 km/h 80 % 0 mm
21:42 -13.7 °C -15.3 °C 34496.6 hPa Calm   2.6 km/h 82 % 0 mm
21:52 -13.9 °C -15.5 °C 34496.6 hPa Calm   2.6 km/h 82 % 0 mm
21:57 -14.1 °C -15.7 °C 34510.1 hPa Calm     82 % 0 mm
22:02 -14.3 °C -15.6 °C 34510.1 hPa Calm   2.6 km/h 85 % 0 mm
22:12 -14.3 °C -15.6 °C 34510.1 hPa Calm   2.6 km/h 86 % 0 mm
22:17 -14.4 °C -15.6 °C 34510.1 hPa Calm   2.6 km/h 86 % 0 mm
22:22 -14.5 °C -15.6 °C 34510.1 hPa Calm   2.6 km/h 87 % 0 mm
22:27 -14.5 °C -15.6 °C 34510.1 hPa Calm     87 % 0 mm
22:37 -14.6 °C -15.6 °C 34510.1 hPa Calm   2.6 km/h 88 % 0 mm
22:42 -14.7 °C -15.6 °C 34510.1 hPa Calm   2.6 km/h 89 % 0 mm
22:47 -14.7 °C -15.7 °C 34520.3 hPa Calm   2.6 km/h 88 % 0 mm
22:52 -14.8 °C -15.7 °C 34520.3 hPa Calm   2.6 km/h 89 % 0 mm
22:57 -14.8 °C -15.7 °C 34510.1 hPa Calm     89 % 0 mm
23:02 -14.8 °C -15.7 °C 34520.3 hPa Calm     89 % 0 mm
23:12 -14.8 °C -15.8 °C 34520.3 hPa Calm     89 % 0 mm
23:17 -14.9 °C -15.8 °C 34520.3 hPa Calm     89 % 0 mm
23:22 -14.8 °C -15.6 °C 34520.3 hPa Calm   2.6 km/h 90 % 0 mm
23:32 -14.7 °C -15.6 °C 34520.3 hPa Calm   2.6 km/h 89 % 0 mm
23:37 -14.7 °C -15.6 °C 34520.3 hPa Calm   2.6 km/h 89 % 0 mm
23:42 -14.7 °C -15.5 °C 34520.3 hPa Calm   2.6 km/h 90 % 0 mm
23:52 -14.7 °C -15.6 °C 34520.3 hPa Calm   2.6 km/h 89 % 0 mm
23:57 -14.7 °C -15.6 °C 34510.1 hPa Calm   2.6 km/h 89 % 0 mm
Meteo18
Compliments of Weather Underground - 4 mb

Script developed by  Jim McMurry - jmcmurry@mwt.net Adapted for the template by  Wim van der Kuil - Leuven-Template.eu

You find our weather info also at:

European Weather Network

Weather Underground

Equipment we use:

Weather-station
Davis Vue

Weather-program
Meteobridge

Weather-server
Raspberry PI 2 B+

Provider
1 and 1

Davis Vue

Meteobridge

Raspberry PI 2 B+

1 and 1